#timestamp,LO_Frequency,Hit 
1500415215.5,286047106.4,N
1500415235.3,286047105.9,N
1500415255.1,286047105.5,N
1500415275.9,286047110.0,N
1500415295.7,286047106.9,N
1500415315.5,286047107.6,N
1500415335.4,286047105.6,N
1500415355.2,286047104.2,N
1500415375.0,286047102.6,N
1500415375.9,286047102.6,N
1500415395.8,286047102.1,N
1500415415.6,286047105.5,N
1500415435.4,286047106.0,N
1500415455.3,286047106.1,N
1500415475.1,286047104.2,N
1500415476.0,286047104.2,N
1500415495.8,286047106.4,N
1500415515.7,286047104.0,N
1500415535.5,286047106.6,N
1500415555.3,286047103.8,N
1500415575.1,286047105.7,N
1500415595.9,286047106.6,N
1500415615.7,286047103.9,N
1500415635.5,286047104.8,N
1500415655.4,286047106.7,N
1500415675.2,286047106.5,N
1500415695.0,286047107.2,N
1500415695.9,286047107.2,N
1500415715.8,286047105.3,N
1500415735.6,286047105.3,N
1500415755.4,286047110.0,N
1500415775.3,286047109.9,N
1500415795.1,286047107.0,N
1500415815.8,286047108.7,N
1500415835.7,286047109.1,N
1500415855.5,286047111.3,N
1500415875.3,286047108.8,N
1500415895.2,286047109.1,N
1500415915.9,286047108.9,N
1500415935.7,286047111.3,N
1500415955.6,286047111.4,N
1500415975.4,286047109.8,N
1500415995.2,286047108.6,N
1500416015.1,286047110.1,N
1500416016.0,286047110.1,N
1500416035.8,286047111.8,N
1500416055.6,286047115.8,N
1500416075.5,286047114.7,N
1500416095.3,286047113.0,N
1500416115.1,286047113.0,N
1500416135.9,286047112.3,N
1500416155.7,286047112.4,N
1500416175.5,286047112.9,N
1500416195.3,286047112.9,N
1500416215.2,286047110.5,N
1500416235.0,286047112.7,N
1500416235.9,286047112.7,N
1500416255.7,286047112.0,N
1500416275.6,286047112.2,N
1500416295.4,286047114.2,N
1500416315.2,286047112.1,N
1500416335.1,286047113.6,N
1500416336.0,286047113.6,N
1500416355.8,286047113.8,N
1500416375.6,286047113.4,N
1500416395.5,286047114.0,N
1500416415.3,286047116.4,N
1500416435.1,286047117.6,N
1500416455.9,286047119.2,N
1500416475.7,286047119.3,N
1500416495.5,286047116.5,N
1500416515.4,286047119.0,N
1500416535.2,286047116.6,N
1500416555.0,286047118.5,N
1500416555.9,286047118.5,N
1500416575.8,286047119.3,N
1500416595.6,286047119.3,N
1500416615.4,286047118.8,N
1500416635.3,286047119.0,N
1500416655.1,286047121.2,N
1500416656.0,286047121.2,N
1500416675.8,286047121.1,N
1500416695.7,286047119.6,N
1500416715.5,286047117.6,N
1500416735.3,286047115.5,N
1500416755.1,286047115.2,N
1500416775.9,286047115.9,N
1500416795.7,286047119.1,N
1500416815.5,286047119.6,N
1500416835.4,286047116.6,N
1500416855.2,286047116.5,N
1500416875.0,286047119.5,N
1500416875.9,286047119.5,N
1500416895.8,286047119.5,N
1500416915.6,286047119.0,N
1500416935.4,286047119.6,N
1500416955.3,286047118.8,N
1500416975.1,286047119.0,N
1500416995.8,286047121.2,N
1500417015.7,286047120.5,N
1500417035.5,286047119.9,N
1500417055.3,286047118.6,N
1500417075.2,286047118.6,N
1500417095.9,286047122.7,N
1500417115.7,286047120.5,N
1500417135.6,286047118.7,N
1500417155.4,286047118.9,N
1500417175.2,286047120.4,N
1500417195.1,286047119.7,N
1500417196.0,286047119.7,N
1500417215.8,286047122.4,N
1500417235.6,286047121.7,N
1500417255.5,286047119.8,N
1500417275.3,286047122.0,N
1500417295.1,286047124.0,N
1500417315.9,286047123.8,N
1500417335.7,286047125.4,N
1500417355.5,286047123.7,N
1500417375.4,286047122.9,N
1500417395.2,286047125.7,N
1500417415.0,286047124.2,N
1500417415.9,286047124.2,N
1500417435.8,286047124.0,N
1500417455.6,286047123.9,N
1500417475.4,286047122.1,N
1500417495.2,286047122.8,N
1500417515.1,286047121.9,N
1500417516.0,286047121.9,N
1500417535.8,286047122.9,N
1500417555.6,286047123.1,N
1500417575.5,286047124.8,N
1500417595.3,286047125.2,N
1500417615.1,286047126.8,N
1500417635.9,286047127.1,N
1500417655.7,286047124.5,N
1500417675.5,286047127.1,N
1500417695.4,286047127.2,N
1500417715.2,286047126.8,N
1500417735.0,286047125.3,N
1500417735.9,286047125.3,N
1500417755.8,286047123.0,N
1500417775.6,286047124.4,N
1500417795.4,286047124.8,N
1500417815.3,286047126.7,N
1500417835.1,286047126.3,N
1500417836.0,286047126.3,N
1500417855.8,286047128.8,N
1500417875.7,286047128.4,N
1500417895.5,286047127.1,N
1500417915.3,286047128.9,N
1500417935.2,286047127.9,N
1500417955.9,286047129.5,N
1500417975.7,286047132.3,N
1500417995.6,286047129.5,N
1500418015.4,286047129.9,N
1500418035.2,286047130.5,N
1500418055.1,286047130.7,N
1500418056.0,286047130.7,N
1500418075.8,286047130.8,N
1500418095.6,286047130.2,N
1500418115.5,286047129.5,N
1500418135.3,286047130.2,N
1500418155.1,286047130.4,N
1500418175.9,286047128.5,N
1500418195.7,286047130.2,N
1500418215.5,286047130.1,N
1500418235.4,286047129.3,N
1500418255.2,286047131.0,N
1500418275.0,286047133.6,N
1500418275.9,286047133.6,N
1500418295.8,286047131.3,N
1500418315.6,286047130.9,N
1500418335.4,286047131.3,N
1500418355.2,286047132.4,N
1500418375.1,286047131.6,N
1500418376.0,286047131.6,N
1500418395.8,286047133.6,N
1500418415.6,286047131.1,N
1500418435.5,286047133.1,N
1500418455.3,286047134.3,N
1500418475.1,286047135.0,N
1500418495.9,286047134.0,N
1500418515.7,286047133.8,N
1500418535.5,286047133.8,N
1500418555.4,286047137.2,Y
1500418575.2,286047072.3,N
1500418595.0,286047073.2,N
1500418595.9,286047073.2,N
1500418615.8,286047070.3,N
1500418635.6,286047071.3,N
1500418655.4,286047069.8,N
1500418675.3,286047068.7,N
1500418695.1,286047071.1,N
1500418715.8,286047071.1,N
1500418735.7,286047072.7,N
1500418755.5,286047070.2,N
1500418775.3,286047072.8,N
1500418795.2,286047070.5,N
